Zurück zum Katalog

CSTP-4.3

AktivWissenschaftSSO
NORAD 64882·PAYLOAD·🇷🇺 Russia
Dieser Satellitenname wurde noch nicht durch offizielle Quellen bestätigt.

Gestartet Jul 25, 2025 von Vostochny Cosmodrome

Loading…

Nächste Überflüge (nächste 24 Stunden)

TLE

AktuellSource: Space-Track

Epoche: Sep 14, 2026, 22:41 UTC

1 64882U 25155G   26257.94530677  .00008824  00000-0  29805-3 0  9998
2 64882  97.4694 226.9034 0005919 204.5455 155.5505 15.30891257 94486

Verfolge CSTP-4.3 in Echtzeit mit AllMySat

Download on the App Store